Overview Statistics Trail Chart Weather Telemetry Raw packets
 

This is the latest recevied weather packets stored in our database for station/object OM5AST-13. If no packets are shown the sender has not sent any weather packets the latest 10 day(s).

<< 11 12 13 14 15 16 17 >>
Time Temp. Humidity Pressure Rain* Wind** Luminosity Snow
1788255835 23.33° C 50% - 0 mm - 0 W/m² -
1788254635 22.78° C 52% - 0 mm - 0 W/m² -
1788253435 22.78° C 52% - 0 mm - 0 W/m² -
1788252235 22.22° C 55% - 0 mm - 0 W/m² -
1788251035 21.67° C 55% - 0 mm - 0 W/m² -
1788249835 21.67° C 58% - 0 mm - 0 W/m² -
1788248635 21.11° C 58% - 0 mm - 0 W/m² -
1788247435 21.11° C 61% - 0 mm - 0 W/m² -
1788246235 20.56° C 60% - 0 mm - 0 W/m² -
1788245035 20.56° C 62% - 0 mm - 0 W/m² -
1788243835 20° C 65% - 0 mm - 0 W/m² -
1788242635 20° C 69% - 0 mm - 0 W/m² -
1788241435 19.44° C 71% - 0 mm - 0 W/m² -
1788240236 18.89° C 74% - 0 mm - 0 W/m² -
1788239035 18.89° C 76% - 0 mm - 0 W/m² -
1788237835 18.89° C 76% - 0 mm - 0 W/m² -
1788236635 18.89° C 75% - 0 mm - 0 W/m² -
1788235435 18.89° C 77% - 0 mm - 0 W/m² -
1788234235 18.89° C 76% - 0 mm - 0 W/m² -
1788233035 19.44° C 75% - 0 mm - 0 W/m² -
1788231835 19.44° C 73% - 0 mm - 0 W/m² -
1788230635 19.44° C 72% - 0 mm - 0 W/m² -
1788229435 19.44° C 69% - 0 mm - 0 W/m² -
1788228235 19.44° C 67% - 0 mm - 0 W/m² -
1788227035 20° C 66% - 0 mm - 0 W/m² -

* Rain latest hour (hover to see other rain measurements)
** Current wind speed in m/s (hover to see current wind gust speed)